Date,TemperatureHighF,TemperatureAvgF,TemperatureLowF,DewpointHighF,DewpointAvgF,DewpointLowF,HumidityHigh,HumidityAvg,HumidityLow,PressureMaxIn,PressureMinIn,WindSpeedMaxMPH,WindSpeedAvgMPH,GustSpeedMaxMPH,PrecipitationSumIn
2013-1-1,44.7,39.5,34.1,31.0,28.3,25.0,72,64,56,30.07,29.95,10,2,11,0.06
2013-1-2,37.9,32.4,25.1,27.9,19.8,15.1,74,60,44,30.28,30.05,16,2,16,0.00
2013-1-3,38.9,29.0,20.5,21.2,19.4,16.6,87,68,44,30.31,30.21,10,1,11,0.00
2013-1-4,42.5,33.8,24.3,24.3,21.9,19.4,82,63,46,30.26,30.15,20,2,22,0.00
2013-1-5,43.4,36.4,30.7,29.9,24.3,21.1,76,62,47,30.42,30.18,11,1,12,0.00
2013-1-6,51.9,41.8,28.4,33.9,30.0,26.8,95,66,40,30.25,30.05,16,1,18,0.06
2013-1-7,46.2,39.6,25.6,30.2,27.0,22.0,85,61,47,30.48,30.18,15,2,17,0.00
2013-1-8,52.9,36.8,23.1,35.2,28.7,20.3,93,75,47,30.48,30.42,12,1,14,0.00
2013-1-9,51.4,39.8,27.1,40.4,33.5,25.4,94,79,53,30.44,30.26,14,1,14,0.00
2013-1-10,52.7,44.8,36.0,32.9,29.3,25.6,72,55,39,30.65,30.40,11,1,13,0.00
2013-1-11,45.6,40.0,33.7,41.3,35.2,29.0,95,84,71,30.56,30.14,6,0,7,0.15
2013-1-12,57.2,46.5,41.8,47.8,42.5,39.7,95,87,70,30.22,30.15,6,0,6,0.00
2013-1-13,49.4,45.3,40.1,47.8,43.5,38.1,95,95,92,30.20,30.03,8,0,8,0.01
2013-1-14,57.1,50.1,40.4,54.3,44.2,33.6,95,82,56,30.35,30.00,14,2,15,0.11
2013-1-15,40.6,38.8,34.9,38.6,36.8,33.4,95,93,89,30.39,30.20,10,2,11,0.74
2013-1-16,40.6,37.5,34.4,38.6,35.8,32.7,95,95,91,30.21,29.88,17,1,20,0.68
2013-1-17,44.2,40.8,37.6,39.2,33.5,29.3,95,77,61,30.18,30.02,11,1,11,0.01
2013-1-18,37.7,33.0,25.3,31.0,19.9,12.1,79,59,39,30.56,30.07,20,3,21,0.00
2013-1-19,48.9,37.6,29.5,28.4,24.9,18.0,76,61,43,30.47,30.00,16,5,18,0.00
2013-1-20,58.2,45.2,35.2,33.0,24.4,12.8,67,46,22,30.14,29.85,22,4,24,0.00
2013-1-21,42.2,34.4,29.1,31.0,21.1,13.9,69,58,46,30.16,29.86,22,3,23,0.00
2013-1-22,29.4,20.6,15.6,14.6,3.0,-1.1,58,45,36,30.35,29.96,23,5,25,0.00
2013-1-23,25.1,19.4,11.7,7.0,3.6,1.6,67,50,39,30.41,30.21,17,2,17,0.00
2013-1-24,25.9,19.6,11.8,15.8,10.0,4.0,89,67,42,30.56,30.17,21,2,24,0.00
2013-1-25,23.5,17.4,10.2,17.8,10.5,4.0,91,74,52,30.57,30.17,11,0,11,0.00
2013-1-26,32.4,24.5,16.5,21.2,18.8,13.9,90,78,59,30.52,30.17,13,1,14,0.01
2013-1-27,37.7,25.0,14.3,23.2,18.6,-94.7,94,78,50,30.69,30.51,8,0,8,0.05
2013-1-28,39.9,34.0,25.5,36.5,30.8,22.7,95,88,76,30.57,30.09,13,2,14,0.18
2013-1-29,65.3,47.0,31.3,50.5,41.1,30.4,96,82,56,30.20,30.06,10,1,10,0.03
2013-1-30,69.4,56.8,45.3,58.2,51.5,42.2,94,84,65,30.06,29.29,23,4,25,0.42
2013-1-31,59.9,43.2,26.1,57.0,28.6,13.7,93,58,37,29.98,29.20,32,6,32,0.11
2013-2-1,30.6,26.0,19.6,26.3,13.8,6.7,92,60,44,30.43,29.88,27,4,29,0.00
2013-2-2,31.2,24.0,15.2,25.6,14.2,7.0,91,66,44,30.45,30.07,13,1,13,0.00
2013-2-3,35.4,28.5,19.9,27.9,24.7,18.9,95,85,64,30.07,29.88,18,1,18,0.03
2013-2-4,36.5,29.9,21.4,23.4,17.0,-91.8,72,59,47,30.17,29.96,19,2,23,0.00
2013-2-5,38.4,33.6,28.4,29.9,27.1,23.4,86,77,63,30.01,29.91,7,1,8,0.00
2013-2-6,43.4,36.0,27.4,31.0,26.6,20.7,91,70,49,30.41,29.98,17,3,19,0.00
2013-2-7,38.9,32.0,22.7,29.2,24.4,19.1,88,74,56,30.51,30.27,10,1,11,0.00
2013-2-8,42.5,37.3,33.0,39.5,33.1,23.4,95,86,65,30.27,29.78,27,4,29,0.28
2013-2-9,39.4,32.3,26.4,23.4,18.9,16.7,67,58,44,30.43,29.93,32,6,32,0.00
2013-2-10,42.9,31.0,17.0,30.6,19.3,14.0,90,64,37,30.53,30.30,10,1,11,0.00
2013-2-11,54.2,45.0,36.3,49.1,41.8,30.6,95,90,73,30.31,29.73,15,3,16,0.44
2013-2-12,55.1,46.3,35.8,39.7,29.7,-85.3,76,54,36,30.06,29.86,23,2,26,0.00
2013-2-13,45.4,35.7,27.8,34.7,30.0,24.8,95,80,59,30.03,29.70,10,1,10,0.18
2013-2-14,49.1,37.2,29.5,32.7,29.6,23.4,95,76,38,30.08,29.81,10,1,10,0.10
2013-2-15,58.3,43.3,31.5,38.4,33.9,28.6,92,73,42,30.10,29.96,17,2,18,0.11
2013-2-16,37.2,35.5,32.4,34.3,30.1,18.7,95,82,57,30.09,29.84,12,3,14,0.13
2013-2-17,32.7,28.2,23.7,19.8,14.9,9.5,69,57,43,30.24,29.84,23,5,31,0.00
2013-2-18,42.2,29.5,19.7,26.1,13.1,8.6,75,51,31,30.44,30.21,18,2,20,0.00
2013-2-19,44.9,38.8,28.4,40.4,30.7,20.7,89,74,53,30.22,29.75,20,4,20,0.01
2013-2-20,37.8,31.9,24.8,23.4,17.0,-11.9,60,53,46,30.20,29.88,23,5,24,0.00
2013-2-21,37.9,29.6,20.1,18.7,15.5,-0.2,65,55,33,30.37,30.17,22,4,23,0.01
2013-2-22,34.7,31.3,22.6,30.2,23.1,-91.4,92,73,48,30.46,30.26,10,1,10,0.01
2013-2-23,45.1,39.1,32.2,43.3,37.4,-93.4,95,95,91,30.28,29.85,8,1,9,0.21
2013-2-24,49.8,41.8,31.8,41.3,31.7,21.1,95,71,41,30.15,29.85,22,4,25,0.00
2013-2-25,48.2,36.1,26.0,27.9,24.0,20.0,82,62,42,30.27,30.15,11,1,12,0.00
2013-2-26,43.6,36.2,26.1,41.7,32.5,22.9,95,87,71,30.29,29.68,20,2,20,0.30
2013-2-27,55.7,47.2,40.9,42.0,38.3,32.3,95,74,50,29.76,29.55,17,3,19,0.12
2013-2-28,48.2,42.8,39.8,37.7,31.5,25.7,90,66,43,29.78,29.69,16,2,18,0.03
2013-3-1,44.9,41.0,35.3,31.9,29.1,24.7,74,63,52,29.92,29.76,16,4,18,0.00
2013-3-2,38.4,34.2,29.0,25.6,23.4,20.5,78,65,55,29.93,29.85,16,3,16,0.00
2013-3-3,38.5,33.6,29.0,22.5,21.3,19.6,72,61,51,29.96,29.84,19,4,22,0.00
2013-3-4,42.6,34.2,27.3,21.8,19.2,16.7,65,54,41,30.08,29.95,19,5,22,0.00
2013-3-5,49.3,36.5,23.2,29.7,22.4,18.2,82,58,33,30.15,29.90,10,1,11,0.00
2013-3-6,40.4,36.9,33.1,35.4,33.1,27.9,95,87,67,30.03,29.68,32,7,34,0.99
2013-3-7,49.2,41.8,35.3,31.0,27.4,24.8,75,58,42,30.20,30.03,23,6,27,0.00
2013-3-8,49.4,41.7,33.8,28.4,26.5,22.5,72,56,44,30.31,30.16,26,6,30,0.00
2013-3-9,63.4,45.6,34.7,26.8,23.9,18.7,66,45,18,30.40,30.31,12,2,16,0.00
2013-3-10,60.3,44.7,27.4,38.6,25.5,11.7,88,54,16,30.41,30.30,14,2,15,0.11
2013-3-11,57.4,49.7,40.3,47.3,42.7,-87.8,89,78,66,30.33,30.01,16,3,18,0.00
2013-3-12,58.7,51.6,41.3,54.3,44.3,31.1,93,78,54,30.02,29.76,17,5,18,0.25
2013-3-13,50.9,40.2,29.2,35.4,27.3,19.8,93,63,32,30.11,29.97,19,3,21,0.00
2013-3-14,44.9,37.1,31.0,21.4,18.8,14.2,63,48,32,30.18,30.07,26,5,29,0.03
2013-3-15,57.2,41.7,25.9,31.0,23.9,18.2,78,52,31,30.16,29.83,17,2,19,0.00
2013-3-16,56.9,44.8,22.5,38.4,33.7,-95.9,80,66,49,29.99,29.72,14,2,15,0.00
2013-3-17,40.2,36.4,33.4,32.7,29.9,24.3,89,78,60,30.33,29.98,15,3,15,0.01
2013-3-18,39.7,37.0,35.2,35.6,28.8,20.5,95,74,55,30.40,29.94,11,2,13,0.46
2013-3-19,59.5,45.4,37.1,40.2,32.1,11.3,95,68,21,29.97,29.78,20,3,23,0.00
2013-3-20,52.9,43.1,31.9,23.6,19.2,15.5,56,40,24,30.06,29.84,24,2,24,0.00
2013-3-21,43.1,35.2,28.5,26.8,17.1,10.4,74,48,34,29.95,29.82,19,5,21,0.00
2013-3-22,46.9,36.0,27.1,21.8,18.3,12.2,62,49,35,30.07,29.94,18,3,18,0.01
2013-3-23,53.2,38.8,24.2,26.3,22.8,18.7,80,55,32,30.10,29.98,18,3,20,0.00
2013-3-24,44.2,36.3,27.1,32.0,24.4,10.4,86,63,41,30.08,29.73,12,1,12,0.00
2013-3-25,36.4,34.0,31.3,34.1,31.9,30.4,95,92,84,29.78,29.58,9,1,9,0.81
2013-3-26,50.4,40.1,28.6,33.9,30.3,25.0,96,71,40,30.06,29.78,13,2,15,0.13
2013-3-27,49.8,43.4,36.9,31.9,28.8,25.4,72,57,44,30.20,30.06,21,4,24,0.00
2013-3-28,49.6,42.4,32.0,33.4,29.1,26.1,81,60,41,30.31,30.18,20,3,21,0.00
2013-3-29,55.5,46.9,39.4,32.1,29.0,26.5,68,51,33,30.35,30.24,15,2,17,0.00
2013-3-30,62.7,47.0,33.8,33.6,28.9,21.1,82,54,23,30.33,30.21,11,1,12,0.00
2013-3-31,54.4,46.5,36.4,48.3,40.0,27.9,91,79,62,30.23,29.83,13,2,14,0.01
2013-4-1,65.8,49.6,39.3,46.0,36.1,21.4,95,64,35,30.04,29.77,27,4,27,0.00
2013-4-2,50.0,40.0,28.4,22.5,18.9,15.8,70,44,29,30.24,30.05,18,3,20,0.00
2013-4-3,51.4,39.3,26.5,22.0,17.2,11.7,68,43,24,30.46,30.24,20,3,23,0.00
2013-4-4,51.9,37.9,22.5,33.9,21.4,15.8,83,53,30,30.50,30.17,12,1,12,0.01
2013-4-5,66.0,49.7,37.7,38.6,31.0,21.4,94,57,22,30.18,29.88,19,3,21,0.18
2013-4-6,58.2,46.3,37.0,33.6,23.2,16.7,68,41,26,30.40,30.12,15,2,16,0.00
2013-4-7,68.3,52.8,37.9,43.3,37.8,-87.7,84,59,38,30.36,30.05,18,3,24,0.01
2013-4-8,80.0,66.4,53.1,50.7,44.6,40.2,66,47,28,30.14,30.01,14,2,15,0.00
2013-4-9,87.6,73.3,62.4,52.1,49.4,45.6,62,45,25,30.12,29.96,15,3,16,0.00
2013-4-10,92.7,77.1,64.3,53.7,50.6,45.6,61,42,21,30.02,29.81,16,3,17,0.00
2013-4-11,82.7,67.6,54.3,59.0,54.7,49.6,86,66,41,29.95,29.80,13,2,16,0.07
2013-4-12,62.2,54.6,51.3,57.5,51.3,48.3,94,90,82,29.89,29.65,12,3,15,0.03
2013-4-13,69.8,54.8,41.1,49.6,42.1,36.5,95,67,34,30.00,29.79,13,2,17,0.00
2013-4-14,67.8,55.0,40.3,44.4,38.7,31.9,89,59,29,30.18,30.00,14,2,15,0.00
2013-4-15,63.7,56.8,52.0,48.9,46.8,42.2,87,70,57,30.34,30.17,11,1,12,0.01
2013-4-16,74.0,61.7,50.7,55.7,51.2,45.6,86,70,51,30.37,30.16,14,2,15,0.00
2013-4-17,75.2,65.1,57.8,58.2,54.7,51.2,90,71,51,30.28,30.16,16,2,16,0.00
2013-4-18,75.3,63.5,57.5,60.8,54.9,50.0,90,75,54,30.29,30.06,18,3,20,0.06
2013-4-19,76.7,65.2,53.1,62.4,58.0,48.9,90,79,61,30.06,29.58,19,3,21,0.03
2013-4-20,61.2,52.9,46.4,50.0,34.9,26.8,91,54,30,30.38,29.82,18,3,24,0.00
2013-4-21,55.9,47.1,39.7,33.4,26.8,21.2,69,46,30,30.65,30.38,13,2,14,0.00
2013-4-22,56.6,46.6,35.0,38.4,34.9,31.1,86,65,47,30.63,30.37,15,2,16,0.00
2013-4-23,64.6,52.0,44.9,45.1,40.6,37.4,84,67,42,30.46,30.18,11,2,13,0.00
2013-4-24,72.6,57.8,40.0,55.2,48.1,37.2,93,73,52,30.19,29.83,16,2,19,0.00
2013-4-25,68.5,55.3,45.9,52.7,35.5,24.8,74,50,20,30.35,29.99,22,3,30,0.01
2013-4-26,69.1,54.7,41.0,39.2,35.4,30.4,85,53,25,30.50,30.12,11,1,12,0.00
2013-4-27,72.9,56.2,38.3,44.4,37.0,30.2,89,55,22,30.49,30.18,11,1,11,0.00
2013-4-28,68.0,56.3,40.7,44.9,39.2,31.0,89,57,28,30.34,30.20,21,2,22,0.00
2013-4-29,59.2,56.1,53.4,55.2,51.6,40.4,92,86,55,30.21,30.11,14,1,14,0.01
2013-4-30,61.1,56.5,50.1,56.3,52.4,45.5,93,87,76,30.33,30.14,12,1,12,0.00
2013-5-1,73.5,57.2,44.0,46.7,42.4,37.7,91,62,29,30.49,30.33,14,2,15,0.00
2013-5-2,72.8,56.7,42.1,48.9,44.5,39.0,93,67,37,30.50,30.37,13,1,13,0.00
2013-5-3,67.7,55.6,45.0,46.7,43.2,39.9,89,66,43,30.45,30.15,11,2,14,0.00
2013-5-4,71.8,56.5,46.0,46.0,43.1,39.5,88,64,38,30.38,30.24,15,2,15,0.00
2013-5-5,67.0,53.9,44.1,45.6,42.1,38.1,83,67,44,30.31,30.20,14,2,14,0.00
2013-5-6,62.9,55.1,47.5,55.9,49.8,42.0,91,84,77,30.24,30.12,12,2,12,0.01
2013-5-7,63.4,59.4,56.8,60.4,56.7,54.3,93,92,88,30.13,29.98,12,2,13,0.16
2013-5-8,71.9,61.0,56.8,57.9,55.3,52.1,92,83,58,30.05,29.98,8,1,9,0.00
2013-5-9,77.8,63.4,52.2,57.3,54.3,49.6,94,75,45,30.03,29.96,11,1,13,0.00
2013-5-10,84.3,68.8,53.2,60.8,55.5,50.0,92,67,39,30.05,29.84,16,1,16,0.12
2013-5-11,79.3,67.1,62.2,64.4,60.2,-74.3,91,82,50,29.96,29.59,19,1,19,0.01
2013-5-12,65.1,59.5,49.0,59.9,41.8,28.6,92,56,27,30.07,29.57,20,3,20,0.00
2013-5-13,60.4,50.8,38.9,36.1,31.1,22.5,84,51,25,30.20,29.80,18,2,19,0.00
2013-5-14,64.4,50.9,34.1,44.9,33.7,28.3,90,57,28,30.26,29.94,14,1,14,0.00
2013-5-15,81.0,66.6,56.1,60.4,52.4,44.6,83,62,44,30.11,29.72,12,1,13,0.00
2013-5-16,83.9,74.7,66.0,60.0,56.6,53.6,70,55,39,29.94,29.78,13,1,15,0.00
2013-5-17,84.8,71.7,56.6,55.9,48.2,36.1,88,48,25,30.20,29.94,9,1,9,0.00
2013-5-18,67.5,63.1,59.3,55.9,52.8,46.0,89,71,51,30.28,29.99,10,1,11,0.00
2013-5-19,73.5,64.9,59.3,62.9,59.8,55.7,92,85,69,30.25,30.12,8,1,8,0.00
2013-5-20,85.2,71.4,63.2,65.8,63.2,59.5,91,77,50,30.16,30.00,10,1,10,0.00
2013-5-21,88.3,74.4,65.1,66.3,64.3,61.3,90,74,46,30.04,29.90,11,1,11,0.00
2013-5-22,90.2,77.3,68.3,68.7,66.3,59.9,89,71,48,29.96,29.85,13,2,13,0.00
2013-5-23,82.5,71.8,64.9,66.9,64.2,59.0,90,79,58,29.93,29.76,14,2,16,0.00
2013-5-24,65.1,57.6,49.9,61.3,48.8,34.1,91,74,54,30.16,29.76,21,4,25,0.00
2013-5-25,67.6,55.3,44.2,38.6,35.4,32.3,70,49,29,30.19,30.09,23,4,26,0.00
2013-5-26,74.7,60.1,48.1,42.8,37.1,32.3,66,45,23,30.24,30.15,14,2,18,0.00
2013-5-27,73.6,61.4,44.7,50.0,42.5,37.2,85,54,30,30.32,30.19,7,0,9,0.00
2013-5-28,79.4,66.8,41.3,64.2,58.1,37.9,89,75,58,30.25,30.05,9,1,10,0.00
2013-5-29,90.6,76.8,56.7,66.9,63.3,43.3,88,66,38,30.15,29.79,12,2,13,0.00
2013-5-30,92.0,80.4,69.5,67.2,63.0,57.3,75,58,35,30.20,30.12,12,2,13,0.00
2013-5-31,93.9,79.8,66.4,64.7,61.0,56.8,85,57,31,30.18,30.04,15,2,16,0.00
2013-6-1,94.2,80.6,68.6,64.7,62.1,59.5,75,56,34,30.08,29.93,15,2,15,0.00
2013-6-2,86.9,77.0,68.3,67.2,63.4,59.9,89,65,47,29.95,29.87,15,3,17,0.00
2013-6-3,81.3,71.1,66.2,67.2,64.7,57.5,90,82,60,29.96,29.82,18,1,22,0.00
2013-6-4,80.0,67.8,58.8,57.9,47.7,40.4,79,52,29,30.16,29.96,12,2,14,0.00
2013-6-5,81.4,67.8,53.1,54.6,51.5,44.6,89,60,30,30.21,30.08,10,1,10,0.00
2013-6-6,74.8,67.3,59.6,62.0,57.1,51.0,89,71,57,30.12,29.92,12,1,12,0.00
2013-6-7,70.8,68.2,65.2,67.2,64.6,61.5,91,90,88,29.92,29.32,16,2,18,0.00
2013-6-8,85.1,71.4,63.0,62.9,60.7,57.3,91,72,41,30.10,29.62,10,1,10,0.00
2013-6-9,82.5,71.5,61.6,65.8,61.1,-77.0,88,72,56,30.24,30.10,10,0,11,0.03
2013-6-10,78.7,72.6,68.3,72.5,67.5,63.3,90,85,76,30.14,29.81,18,1,18,0.05
2013-6-11,84.2,74.0,66.4,66.3,62.7,59.0,92,71,46,29.88,29.78,14,2,18,0.00
2013-6-12,89.9,77.0,64.5,83.1,61.4,-76.7,100,63,39,29.98,29.73,14,1,18,0.00
2013-6-13,86.5,74.4,68.9,69.6,64.7,54.6,87,73,47,29.85,29.47,21,2,25,0.00
2013-6-14,80.5,68.6,39.6,59.0,51.6,-87.7,100,59,33,29.99,29.60,23,4,24,0.00
2013-6-15,85.0,71.6,58.0,57.0,50.7,-83.3,87,56,31,30.15,29.99,10,1,12,0.00
2013-6-16,84.8,73.2,62.4,64.9,60.1,55.4,84,66,45,30.05,29.90,13,1,14,0.00
2013-6-17,88.0,77.6,67.3,67.6,63.3,59.0,79,64,43,29.97,29.88,11,1,11,0.00
2013-6-18,78.3,71.3,63.1,68.1,64.8,59.3,90,81,66,29.95,29.80,9,1,10,0.00
2013-6-19,82.2,70.2,62.2,61.5,58.2,53.6,91,69,39,30.18,29.90,12,1,12,0.00
2013-6-20,82.9,70.3,59.1,59.9,56.0,51.6,90,65,37,30.30,30.18,11,1,12,0.00
2013-6-21,84.5,71.2,55.8,59.9,53.9,43.7,88,59,27,30.33,30.27,10,1,11,0.00
2013-6-22,87.8,74.2,61.0,64.7,60.8,56.8,90,66,43,30.28,30.18,10,2,10,0.00
2013-6-23,86.7,74.9,65.4,71.0,66.2,60.8,87,76,55,30.22,30.09,8,1,9,0.01
2013-6-24,93.7,78.8,70.4,69.9,66.7,62.4,89,70,37,30.14,30.02,11,1,14,0.00
2013-6-25,96.3,80.9,67.6,68.7,65.0,45.5,89,63,29,30.07,29.90,20,2,22,0.17
2013-6-26,92.3,77.0,67.0,70.1,66.3,63.3,89,73,44,29.95,29.70,13,1,13,0.01
2013-6-27,85.3,75.4,68.8,71.9,68.0,64.4,89,79,62,29.85,29.61,13,2,14,0.00
2013-6-28,89.1,75.8,69.6,70.1,66.4,63.3,89,75,45,29.66,29.50,12,2,13,0.01
2013-6-29,89.0,77.1,66.1,70.5,64.6,56.3,91,69,35,29.73,29.55,11,1,11,0.00
2013-6-30,85.9,77.0,71.9,72.5,70.1,67.2,88,81,61,29.87,29.73,9,1,9,0.00
2013-7-1,83.6,77.1,71.9,71.6,69.7,66.9,87,79,65,30.02,29.87,12,2,13,0.00
2013-7-2,83.4,76.0,71.6,71.0,69.0,65.4,87,80,64,30.21,30.02,14,2,14,0.01
2013-7-3,88.4,77.0,70.8,74.3,69.3,66.2,88,79,55,30.26,30.07,13,1,15,0.01
2013-7-4,91.0,80.2,72.2,71.9,69.5,66.7,89,72,47,30.27,30.18,14,2,14,0.00
2013-7-5,93.3,81.9,72.7,70.1,68.4,65.4,87,66,42,30.25,30.12,14,2,15,0.00
2013-7-6,96.8,83.8,73.8,71.0,68.1,63.8,85,63,36,30.20,30.08,9,2,12,0.00
2013-7-7,94.7,81.0,70.6,69.6,67.4,63.3,85,67,41,30.13,29.99,16,2,22,0.01
2013-7-8,91.0,78.2,69.9,69.6,65.8,61.8,88,69,40,30.11,30.04,8,1,10,0.00
2013-7-9,86.5,78.8,71.5,71.0,68.1,65.4,85,71,54,30.11,30.01,7,1,8,0.00
2013-7-10,92.6,80.4,73.6,72.8,69.6,65.4,85,72,46,30.04,29.69,19,2,21,0.00
2013-7-11,87.0,77.3,71.5,70.8,67.1,61.5,89,73,45,29.93,29.78,12,1,14,0.00
2013-7-12,75.4,70.1,66.7,68.1,65.1,62.0,89,85,73,30.02,29.89,13,2,13,0.00
2013-7-13,89.0,76.1,67.3,71.4,67.9,63.8,91,78,54,30.31,30.02,16,1,16,0.00
2013-7-14,91.0,79.9,70.8,73.4,69.8,66.7,90,74,51,30.35,30.28,9,1,9,0.00
2013-7-15,96.5,82.6,70.6,71.0,68.0,63.5,88,65,36,30.31,30.17,9,1,11,0.00
2013-7-16,96.0,85.6,77.0,70.5,65.8,60.0,79,55,33,30.24,30.15,13,2,13,0.00
2013-7-17,97.8,84.7,72.6,71.0,67.3,62.4,83,59,37,30.21,30.09,9,1,11,0.00
2013-7-18,99.0,85.6,74.4,74.3,70.2,67.6,83,63,40,30.13,29.98,12,1,12,0.00
2013-7-19,99.8,84.4,75.8,73.2,71.3,66.3,85,68,37,30.02,29.88,12,2,14,0.04
2013-7-20,96.8,83.1,74.1,73.2,69.6,65.4,87,68,37,29.91,29.79,13,1,15,0.00
2013-7-21,92.5,77.8,71.2,71.0,68.1,63.3,87,75,39,29.96,29.87,12,1,12,0.11
2013-7-22,90.6,79.9,71.7,73.2,70.4,67.6,89,75,53,29.95,29.77,10,1,11,0.00
2013-7-23,89.3,78.9,71.6,70.8,67.3,62.7,89,71,45,29.80,29.64,15,1,15,0.00
2013-7-24,85.6,76.8,69.4,66.2,62.1,53.2,83,62,45,29.93,29.68,12,2,13,0.00
2013-7-25,81.5,70.6,62.7,61.5,55.7,50.1,78,60,49,30.04,29.93,11,3,16,0.00
2013-7-26,86.5,73.5,64.0,62.4,58.9,53.6,85,63,35,30.09,30.02,8,1,9,0.00
2013-7-27,87.0,74.8,66.2,67.6,64.3,59.9,87,72,50,30.12,29.94,14,1,15,0.00
2013-7-28,89.1,77.6,70.5,69.2,65.7,62.7,82,69,45,30.00,29.89,8,1,9,0.00
2013-7-29,84.8,73.8,63.9,66.2,54.6,48.5,82,55,30,30.18,29.99,13,2,13,0.00
2013-7-30,85.6,72.0,58.7,59.9,55.0,50.7,86,59,32,30.24,30.14,10,1,10,0.00
2013-7-31,83.3,73.2,63.3,65.3,61.7,58.2,86,69,47,30.17,30.03,10,1,10,0.00
2013-8-1,85.4,73.3,67.7,70.5,66.9,63.3,90,82,58,30.04,29.80,11,1,12,0.02
2013-8-2,89.2,76.2,64.4,67.6,62.3,57.3,90,66,36,29.97,29.86,12,1,12,0.00
2013-8-3,78.3,70.6,66.3,66.3,62.8,-9.0,86,78,61,30.18,29.92,9,0,9,0.00
2013-8-4,82.9,71.7,62.0,61.8,54.7,-80.3,90,60,33,30.03,29.91,17,2,18,0.00
2013-8-5,81.8,68.8,56.0,58.8,54.7,51.0,87,64,40,30.10,30.01,9,1,9,0.00
2013-8-6,73.8,69.1,64.5,64.4,61.9,57.3,86,79,72,30.10,30.02,10,1,10,0.00
2013-8-7,82.8,74.8,68.4,69.6,66.9,63.5,87,78,63,30.10,30.00,11,2,12,0.00
2013-8-8,87.2,77.6,71.7,71.4,69.1,66.9,87,77,55,30.07,29.98,18,2,22,0.00
2013-8-9,89.9,80.7,74.6,74.3,70.1,65.4,87,72,48,30.00,29.85,13,2,14,0.00
2013-8-10,89.0,77.7,69.7,68.5,63.6,56.8,84,64,36,30.10,29.94,10,1,11,0.00
2013-8-11,86.0,75.8,68.0,66.9,64.4,62.4,86,70,48,30.13,30.03,10,1,11,0.00
2013-8-12,90.6,77.7,68.4,68.1,66.0,61.5,88,70,40,30.05,29.93,10,1,11,0.00
2013-8-13,89.2,77.5,71.0,70.8,67.5,62.9,88,73,44,29.93,29.74,13,1,13,0.00
2013-8-14,77.3,68.4,59.4,65.8,50.6,45.1,84,55,39,30.10,29.81,15,3,18,0.00
2013-8-15,80.3,66.1,52.8,53.7,50.4,44.9,90,61,34,30.19,30.10,9,1,9,0.00
2013-8-16,80.1,67.2,53.5,57.0,52.8,49.6,90,64,36,30.22,30.10,9,1,9,0.00
2013-8-17,82.8,69.0,55.2,60.8,55.4,51.2,91,66,38,30.28,30.21,12,1,12,0.00
2013-8-18,74.2,69.6,65.2,62.4,59.0,54.3,85,70,52,30.25,30.15,11,1,11,0.01
2013-8-19,78.7,69.3,60.9,63.8,60.8,57.0,90,76,60,30.20,30.07,9,1,10,0.05
2013-8-20,88.4,73.7,60.7,66.7,63.5,57.0,91,73,48,30.17,30.10,10,1,11,0.00
2013-8-21,90.7,77.6,66.9,70.5,67.1,62.9,90,73,44,30.20,30.08,13,1,13,0.00
2013-8-22,90.3,79.2,71.0,70.1,65.1,59.9,88,65,39,30.10,29.92,11,2,13,0.00
2013-8-23,79.3,71.6,61.5,64.7,60.2,46.2,83,69,47,30.12,29.94,12,1,12,0.05
2013-8-24,86.3,70.5,57.7,60.9,55.0,46.5,89,63,27,30.35,30.12,11,2,12,0.00
2013-8-25,84.5,69.1,55.0,60.8,52.8,46.0,91,61,29,30.42,30.28,11,1,11,0.00
2013-8-26,91.7,74.6,60.8,61.3,56.8,52.8,81,58,29,30.31,30.00,15,2,15,0.00
2013-8-27,91.1,79.9,71.7,67.8,64.0,60.4,77,61,40,30.01,29.87,11,2,13,0.00
2013-8-28,85.1,76.2,71.5,70.8,67.4,64.7,86,76,55,29.93,29.83,13,1,13,0.01
2013-8-29,88.1,76.6,71.2,68.1,66.1,62.4,87,72,45,30.05,29.86,14,2,14,0.00
2013-8-30,90.4,76.9,66.4,68.1,64.6,60.8,88,69,38,30.05,29.89,13,2,13,0.00
2013-8-31,91.8,79.2,69.3,69.9,67.0,64.7,87,69,44,29.93,29.80,16,2,16,0.00
2013-9-1,92.5,79.8,68.4,71.0,67.5,63.5,87,69,47,29.85,29.76,10,1,11,0.00
2013-9-2,93.3,80.6,70.5,71.0,66.6,61.3,88,66,37,29.81,29.72,12,1,12,0.01
2013-9-3,85.8,77.9,69.4,68.7,59.4,50.5,84,57,32,29.97,29.73,13,2,14,0.00
2013-9-4,87.9,70.5,56.6,54.6,50.1,37.9,85,54,18,30.07,29.96,9,1,10,0.00
2013-9-5,85.3,71.8,58.8,57.5,54.1,47.8,87,58,32,30.14,30.00,13,2,14,0.00
2013-9-6,80.3,66.5,57.2,49.6,45.6,40.4,74,49,30,30.26,30.14,13,2,14,0.00
2013-9-7,85.3,66.7,50.3,59.3,52.5,46.0,88,65,31,30.16,29.94,9,1,10,0.00
2013-9-8,88.6,75.1,64.5,61.8,59.2,51.6,87,61,37,30.07,29.86,14,2,15,0.00
2013-9-9,81.2,70.7,60.9,64.9,54.5,46.5,77,57,44,30.20,30.07,11,2,12,0.00
2013-9-10,92.7,79.5,69.4,70.1,67.1,64.7,87,69,42,30.18,30.07,11,2,11,0.00
2013-9-11,95.7,82.5,73.0,70.8,67.9,61.5,86,65,34,30.15,29.98,15,2,16,0.00
2013-9-12,92.3,75.1,68.8,68.7,66.4,63.5,90,77,41,30.00,29.73,26,2,35,0.37
2013-9-13,79.0,69.5,63.1,66.3,56.2,46.0,91,67,32,29.93,29.70,14,2,16,0.01
2013-9-14,71.7,60.7,52.2,49.6,46.3,43.7,82,62,38,30.16,29.93,10,2,13,0.20
2013-9-15,77.4,61.4,45.7,56.3,49.6,42.8,93,69,36,30.24,30.08,11,1,12,0.00
2013-9-16,73.8,65.0,56.8,58.2,53.8,49.1,83,69,46,30.23,30.03,13,2,14,0.02
2013-9-17,69.8,58.2,47.5,51.8,43.5,38.1,85,61,36,30.43,30.23,16,3,16,0.00
2013-9-18,72.0,56.2,42.1,50.0,44.7,39.2,93,69,36,30.35,30.19,9,1,9,0.00
2013-9-19,78.0,61.3,45.7,56.3,50.8,42.2,91,72,45,30.20,30.07,10,1,10,0.00
2013-9-20,80.0,64.7,50.8,58.8,54.6,47.1,91,73,48,30.11,29.97,10,1,12,0.00
2013-9-21,78.8,66.3,57.2,64.7,59.0,53.7,91,80,53,30.01,29.67,13,2,17,0.76
2013-9-22,71.2,64.2,56.3,60.4,51.6,-74.0,92,68,40,29.94,29.72,13,2,14,0.01
2013-9-23,68.3,57.4,48.5,47.6,43.7,38.6,88,63,39,30.09,29.94,15,2,15,0.00
2013-9-24,75.4,56.6,42.5,48.5,43.6,39.5,93,67,30,30.12,29.94,10,1,12,0.00
2013-9-25,75.3,58.4,45.2,52.7,46.1,39.5,92,69,29,29.99,29.89,9,1,9,0.00
2013-9-26,75.2,61.5,52.2,54.8,49.7,45.6,89,69,38,30.08,29.93,12,1,12,0.00
2013-9-27,74.3,62.4,52.9,58.2,52.9,48.5,88,74,46,30.24,30.07,10,1,10,0.00
2013-9-28,73.9,62.8,55.1,55.2,52.0,48.3,88,71,43,30.31,30.22,8,1,10,0.00
2013-9-29,74.3,59.8,48.4,55.9,50.6,44.9,93,75,44,30.22,30.07,10,1,12,0.00
2013-9-30,75.8,59.7,48.0,54.3,49.6,44.4,92,73,38,30.10,29.98,7,0,7,0.00
2013-10-1,81.5,65.6,51.4,59.0,54.3,48.2,92,71,37,30.07,29.96,8,1,9,0.00
2013-10-2,86.1,69.8,57.9,59.9,56.3,53.6,89,66,36,30.09,29.89,11,1,13,0.00
2013-10-3,82.3,70.0,59.3,64.2,59.8,54.6,88,72,50,30.13,30.04,8,0,8,0.00
2013-10-4,88.3,71.8,59.1,64.9,60.5,54.8,90,72,37,30.09,30.00,9,0,9,0.00
2013-10-5,87.8,74.0,63.9,64.9,62.0,59.3,89,70,41,30.09,29.99,9,0,10,0.00
2013-10-6,86.0,73.6,62.9,66.7,63.2,58.8,91,73,46,30.03,29.92,12,2,14,0.00
2013-10-7,75.2,66.4,56.0,68.7,60.9,46.0,90,84,69,30.05,29.79,16,2,20,0.86
2013-10-8,66.3,56.3,46.3,50.0,46.0,42.0,92,71,45,30.28,30.05,15,1,16,0.00
2013-10-9,60.4,56.6,52.2,51.0,48.1,44.0,87,75,63,30.32,30.21,20,3,21,0.10
2013-10-10,57.7,55.5,53.1,55.7,53.1,50.1,94,93,85,30.21,29.98,17,5,17,2.25
2013-10-11,63.6,60.3,57.3,60.4,57.9,55.2,94,93,90,30.01,29.93,15,4,19,2.21
2013-10-12,66.7,62.8,60.0,59.9,57.2,53.7,93,84,66,30.16,29.99,15,3,15,1.49
2013-10-13,65.6,60.2,55.8,57.9,55.1,51.0,92,84,70,30.33,30.16,17,2,18,0.41
2013-10-14,68.9,59.7,51.7,54.1,51.5,48.2,89,76,57,30.35,30.17,10,1,10,0.00
2013-10-15,70.0,58.4,48.0,54.1,48.1,36.5,94,73,31,30.25,30.09,10,1,10,0.00
2013-10-16,69.1,63.2,59.4,60.0,57.0,52.8,89,81,71,30.09,29.92,7,0,7,0.00
2013-10-17,75.2,65.5,57.9,62.4,59.3,55.4,92,82,61,29.93,29.72,13,1,13,0.00
2013-10-18,65.8,57.8,46.3,45.6,43.2,40.2,88,61,41,30.02,29.85,11,2,13,0.00
2013-10-19,64.9,54.3,42.8,56.3,47.5,40.2,93,80,54,30.01,29.79,13,1,14,0.00
2013-10-20,62.3,52.7,41.3,46.5,38.1,33.9,87,60,35,30.12,29.86,9,2,21,0.00
2013-10-21,66.7,51.0,37.0,46.7,40.7,33.9,95,72,37,30.17,29.96,14,1,15,0.00
2013-10-22,63.1,55.0,45.4,50.0,46.1,-78.3,91,74,53,29.98,29.84,11,1,11,0.00
2013-10-23,57.4,50.0,43.9,43.1,38.0,-84.1,87,65,44,29.90,29.66,11,1,16,0.01
2013-10-24,52.4,43.6,35.5,36.8,31.9,26.5,86,65,40,30.15,29.89,15,2,17,0.00
2013-10-25,55.2,42.8,32.8,34.7,31.3,27.5,88,66,40,30.33,30.15,15,2,16,0.00
2013-10-26,57.1,43.7,28.9,33.4,29.8,-79.9,93,62,35,30.32,29.96,18,2,20,0.00
2013-10-27,59.4,48.3,36.9,37.4,34.2,-80.6,87,61,40,30.18,29.97,12,1,16,0.00
2013-10-28,63.8,46.1,32.5,44.4,37.5,29.7,95,75,40,30.31,30.17,8,0,8,0.00
2013-10-29,62.2,47.8,36.6,45.1,39.7,33.9,94,77,46,30.41,30.30,8,0,8,0.00
2013-10-30,65.2,53.0,44.5,55.2,48.5,40.4,94,86,68,30.36,30.18,8,0,9,0.12
2013-10-31,68.8,59.9,51.0,99.9,54.9,48.5,94,84,65,30.22,29.80,11,2,12,0.48
2013-11-1,73.0,65.7,55.6,60.9,57.6,51.8,90,77,54,29.79,29.60,18,4,24,0.19
2013-11-2,67.9,56.7,46.4,52.3,45.6,35.6,94,70,41,29.88,29.65,13,1,14,0.01
2013-11-3,55.5,47.0,40.0,41.5,32.2,21.8,88,60,28,30.49,29.88,15,2,17,0.00
2013-11-4,46.4,38.6,33.3,29.2,24.4,20.7,83,58,38,30.67,30.49,12,2,13,0.00
2013-11-5,58.7,48.2,33.6,46.2,39.8,28.6,86,74,58,30.63,30.49,8,0,8,0.00
2013-11-6,66.9,56.2,45.2,50.7,47.7,40.8,92,75,56,30.49,30.08,11,1,11,0.00
2013-11-7,61.6,53.8,44.0,55.4,45.6,25.4,91,76,46,30.10,29.88,21,3,23,0.05
2013-11-8,50.7,40.8,31.4,31.9,26.5,22.9,83,59,37,30.33,30.10,21,2,24,0.00
2013-11-9,54.9,42.1,28.8,31.9,28.6,24.8,87,61,37,30.38,29.87,14,2,16,0.00
2013-11-10,62.6,49.1,39.9,36.6,30.8,26.5,72,51,28,30.24,29.88,23,3,34,0.00
2013-11-11,57.7,46.5,31.6,33.6,30.0,25.7,82,55,33,30.33,30.02,15,2,16,0.00
2013-11-12,52.0,40.8,29.3,36.1,24.3,14.0,70,52,38,30.42,30.00,24,4,25,0.00
2013-11-13,42.4,32.9,24.9,22.0,19.7,16.2,76,59,39,30.49,30.41,20,2,22,0.00
2013-11-14,58.4,36.8,23.7,27.7,21.5,12.1,85,59,17,30.42,30.25,9,1,10,0.00
2013-11-15,60.3,41.3,26.4,39.2,29.5,21.4,84,66,31,30.33,30.23,7,0,7,0.01
2013-11-16,52.8,48.8,43.7,48.5,45.4,39.0,93,89,80,30.37,30.22,6,0,7,0.19
2013-11-17,64.3,56.2,50.3,55.7,52.1,48.3,94,87,73,30.28,29.78,11,1,11,0.04
2013-11-18,67.7,59.3,50.1,59.5,38.8,19.6,91,53,17,29.96,29.71,29,4,29,0.17
2013-11-19,50.2,44.1,33.8,28.4,27.0,25.0,73,51,41,30.41,29.95,18,4,20,0.00
2013-11-20,43.9,36.2,28.6,27.9,25.3,22.1,86,65,47,30.61,30.40,14,1,14,0.00
2013-11-21,49.9,39.9,26.7,39.0,32.3,23.4,90,75,59,30.62,30.43,7,0,7,0.00
2013-11-22,60.0,52.3,45.1,51.0,45.4,38.4,89,78,65,30.43,30.03,12,1,13,0.01
2013-11-23,57.2,44.2,31.8,49.6,27.9,13.7,76,54,36,30.24,30.04,22,5,26,0.00
2013-11-24,31.7,27.2,23.1,13.1,10.7,6.3,63,49,36,30.54,30.23,24,6,29,0.00
2013-11-25,37.2,28.3,18.9,15.7,12.4,9.2,66,52,33,30.60,30.38,12,1,12,0.00
2013-11-26,55.7,36.8,32.0,53.7,29.2,15.7,95,76,48,30.38,29.59,12,1,12,1.09
2013-11-27,56.5,37.6,29.7,54.6,30.1,18.0,95,75,59,30.05,29.56,24,6,28,0.72
2013-11-28,37.2,30.4,25.2,25.0,18.0,13.9,81,60,40,30.53,30.05,17,3,27,0.00
2013-11-29,41.1,31.8,20.9,25.6,21.8,18.0,93,68,45,30.78,30.51,14,2,15,0.00
2013-11-30,38.6,30.5,21.5,26.1,22.5,18.2,88,72,53,30.78,30.42,6,0,7,0.00
2013-12-1,47.9,35.4,21.9,39.2,28.4,-87.3,100,77,52,30.42,30.07,7,0,7,0.00
2013-12-2,50.0,42.2,38.8,38.4,35.3,32.1,90,78,58,30.07,29.92,6,0,7,0.00
2013-12-3,56.9,44.3,35.5,38.1,35.0,30.6,88,72,47,30.05,29.87,9,0,9,0.00
2013-12-4,52.9,45.4,35.8,47.1,40.2,-82.4,92,83,72,30.21,30.04,7,0,7,0.21
2013-12-5,65.3,57.2,49.6,59.0,52.3,46.0,94,85,72,30.13,29.96,15,2,16,0.00
2013-12-6,65.3,51.1,37.2,60.0,47.9,35.6,95,90,81,30.22,29.92,21,4,21,0.66
2013-12-7,42.6,37.3,31.0,36.1,30.5,22.9,95,78,60,30.58,30.16,19,4,19,0.26
2013-12-8,32.0,29.5,27.5,31.0,25.0,20.5,96,82,67,30.65,30.32,12,2,13,0.07
2013-12-9,35.9,33.4,31.2,34.3,32.1,30.6,96,95,93,30.34,30.09,9,0,9,0.87
2013-12-10,36.2,32.5,29.5,33.0,29.6,20.5,96,89,68,30.27,30.03,14,1,14,0.18
2013-12-11,39.7,30.3,22.7,23.6,21.0,16.7,91,68,47,30.46,30.27,14,1,14,0.12
2013-12-12,29.9,26.0,21.3,22.7,15.4,10.4,92,64,45,30.48,30.30,16,2,17,0.00
2013-12-13,40.9,30.7,20.6,24.1,18.8,13.1,81,62,40,30.38,30.28,16,1,20,0.00
2013-12-14,37.9,34.7,29.9,36.1,30.3,23.2,95,85,72,30.40,29.74,12,2,13,0.64
2013-12-15,45.2,37.0,31.9,36.6,30.0,22.9,95,78,57,30.00,29.68,24,3,25,0.01
2013-12-16,36.7,33.4,31.0,26.5,23.5,18.2,78,67,58,30.25,29.99,13,2,15,0.00
2013-12-17,37.0,33.8,31.1,30.4,27.5,24.8,84,78,73,30.23,29.99,8,0,8,0.00
2013-12-18,38.9,32.0,24.3,28.3,23.4,18.7,92,71,47,30.28,30.03,17,2,19,0.00
2013-12-19,58.9,39.1,21.8,31.7,26.7,19.4,92,65,34,30.27,30.12,11,2,12,0.00
2013-12-20,58.7,52.3,43.3,47.3,34.5,27.5,70,52,37,30.18,30.06,15,3,17,0.00
2013-12-21,71.5,62.0,53.9,57.3,49.5,42.6,75,65,49,30.08,29.94,21,5,23,0.00
2013-12-22,70.2,64.3,61.2,60.8,58.1,55.4,90,82,72,30.07,29.88,27,5,30,0.40
2013-12-23,63.2,54.7,38.7,60.0,49.5,27.9,93,84,64,30.28,29.97,16,3,18,0.81
2013-12-24,39.9,33.4,23.5,29.0,21.8,9.7,84,63,45,30.52,30.25,22,4,26,0.00
2013-12-25,32.6,24.1,17.9,18.0,14.3,10.6,86,66,45,30.63,30.46,10,1,10,0.00
2013-12-26,43.7,29.8,18.9,27.2,22.4,16.6,93,75,47,30.46,30.27,12,0,12,0.00
2013-12-27,49.1,33.5,22.2,26.1,21.9,18.0,87,65,32,30.48,30.37,13,1,13,0.00
2013-12-28,58.2,40.9,26.4,30.4,26.4,22.0,83,59,30,30.39,30.17,11,1,12,0.00
2013-12-29,47.0,44.0,38.7,45.1,38.3,28.4,95,83,51,30.17,29.58,13,1,14,1.04
2013-12-30,45.9,38.0,32.3,37.9,30.5,20.3,95,76,59,30.25,29.87,16,2,17,0.00
2013-12-31,44.1,33.6,25.1,30.4,22.3,18.0,78,63,45,30.40,30.16,20,2,26,0.00
2014-1-1,44.1,32.9,22.8,31.1,25.9,18.9,92,76,53,30.49,30.21,11,1,12,0.00
2014-1-2,36.0,32.3,27.0,32.7,30.5,26.1,96,93,85,30.20,29.66,12,1,13,0.00